| time (UTC) | temp F | wind direction | speed MPH | gust MPH | rain 1hr in | rain 24hr in | rain mn in | humidity % | barometer mb |
| 20260508233139 | 54 | 259 | 0.0 | 7.0 | 0.00 | 0.00 | 0.00 | 75 | 1022.7 |
| 20260508231639 | 55 | 45 | 2.0 | 6.0 | 0.00 | 0.00 | 0.00 | 75 | 1022.8 |
| 20260508231139 | 54 | 264 | 1.0 | 8.0 | 0.00 | 0.00 | 0.00 | 75 | 1022.7 |
| 20260508230709 | 54 | 38 | 4.0 | 8.0 | 0.00 | 0.00 | 0.00 | 75 | 1022.7 |
| 20260508230208 | 55 | 299 | 4.0 | 5.0 | 0.00 | 0.00 | 0.00 | 74 | 1022.7 |
| 20260508225638 | 54 | 304 | 2.0 | 5.0 | 0.00 | 0.00 | 0.00 | 74 | 1022.6 |
| 20260508224709 | 54 | 341 | 2.0 | 4.0 | 0.00 | 0.00 | 0.00 | 75 | 1022.5 |
| 20260508224138 | 54 | 351 | 1.0 | 4.0 | 0.00 | 0.00 | 0.00 | 75 | 1022.5 |
| 20260508223639 | 54 | 233 | 0.0 | 6.0 | 0.00 | 0.00 | 0.00 | 75 | 1022.5 |
| 20260508223138 | 54 | 291 | 2.0 | 6.0 | 0.00 | 0.00 | 0.00 | 75 | 1022.5 |
| 20260508222638 | 54 | 267 | 0.0 | 6.0 | 0.00 | 0.00 | 0.00 | 75 | 1022.6 |
| 20260508222208 | 54 | 302 | 1.0 | 6.0 | 0.00 | 0.00 | 0.00 | 75 | 1022.7 |
| 20260508221708 | 54 | 275 | 3.0 | 6.0 | 0.00 | 0.00 | 0.00 | 75 | 1022.7 |
| 20260508220638 | 54 | 338 | 6.0 | 7.0 | 0.00 | 0.00 | 0.00 | 75 | 1022.6 |
| 20260508220208 | 54 | 260 | 1.0 | 7.0 | 0.00 | 0.00 | 0.00 | 75 | 1022.7 |
| 20260508215708 | 54 | 254 | 0.0 | 7.0 | 0.00 | 0.00 | 0.00 | 74 | 1022.7 |
| 20260508215138 | 54 | 292 | 2.0 | 6.0 | 0.00 | 0.00 | 0.00 | 75 | 1022.7 |
| 20260508214637 | 54 | 349 | 1.0 | 7.0 | 0.00 | 0.00 | 0.00 | 74 | 1022.7 |
| 20260508214208 | 54 | 318 | 2.0 | 7.0 | 0.00 | 0.00 | 0.00 | 74 | 1022.7 |
| 20260508213637 | 54 | 295 | 3.0 | 6.0 | 0.00 | 0.00 | 0.00 | 73 | 1022.5 |
| 20260508213207 | 54 | 301 | 3.0 | 5.0 | 0.00 | 0.00 | 0.00 | 74 | 1022.5 |
| 20260508212637 | 55 | 290 | 1.0 | 4.0 | 0.00 | 0.00 | 0.00 | 73 | 1022.6 |
| 20260508211637 | 55 | 27 | 4.0 | 5.0 | 0.00 | 0.00 | 0.00 | 74 | 1022.5 |
| 20260508211137 | 55 | 21 | 2.0 | 6.0 | 0.00 | 0.00 | 0.00 | 74 | 1022.5 |
| 20260508210706 | 55 | 10 | 2.0 | 7.0 | 0.00 | 0.00 | 0.00 | 74 | 1022.4 |
| 20260508210206 | 55 | 250 | 3.0 | 7.0 | 0.00 | 0.00 | 0.00 | 73 | 1022.4 |
| 20260508205707 | 55 | 217 | 0.0 | 4.0 | 0.00 | 0.00 | 0.00 | 76 | 1022.4 |
| 20260508205137 | 55 | 240 | 2.0 | 5.0 | 0.00 | 0.00 | 0.00 | 75 | 1022.3 |
| 20260508204707 | 54 | 249 | 1.0 | 5.0 | 0.00 | 0.00 | 0.00 | 77 | 1022.2 |
| 20260508204206 | 54 | 264 | 5.0 | 5.0 | 0.00 | 0.00 | 0.00 | 78 | 1022.3 |
| 20260508203636 | 53 | 279 | 2.0 | 5.0 | 0.00 | 0.00 | 0.00 | 79 | 1022.3 |
| 20260508203136 | 53 | 238 | 3.0 | 5.0 | 0.00 | 0.00 | 0.00 | 78 | 1022.2 |
| 20260508202706 | 53 | 257 | 1.0 | 6.0 | 0.00 | 0.00 | 0.00 | 79 | 1022.1 |
| 20260508202206 | 53 | 293 | 3.0 | 6.0 | 0.00 | 0.00 | 0.00 | 79 | 1022.1 |
| 20260508201705 | 52 | 285 | 2.0 | 7.0 | 0.00 | 0.00 | 0.00 | 81 | 1022.0 |
| 20260508201206 | 52 | 279 | 2.0 | 7.0 | 0.00 | 0.00 | 0.00 | 80 | 1022.0 |
| 20260508200706 | 52 | 329 | 3.0 | 6.0 | 0.00 | 0.00 | 0.00 | 81 | 1022.1 |
| 20260508200206 | 52 | 255 | 1.0 | 6.0 | 0.00 | 0.00 | 0.00 | 81 | 1022.1 |
| 20260508195705 | 52 | 300 | 3.0 | 4.0 | 0.00 | 0.00 | 0.00 | 81 | 1022.0 |
| 20260508195205 | 52 | 245 | 1.0 | 4.0 | 0.00 | 0.00 | 0.00 | 82 | 1022.0 |
| 20260508193705 | 52 | 294 | 0.0 | 2.0 | 0.00 | 0.00 | 0.00 | 82 | 1022.0 |
| 20260508193205 | 51 | 245 | 0.0 | 3.0 | 0.00 | 0.00 | 0.00 | 82 | 1022.0 |
| 20260508192704 | 51 | 281 | 0.0 | 3.0 | 0.00 | 0.00 | 0.00 | 82 | 1021.8 |
| 20260508192205 | 51 | 252 | 2.0 | 4.0 | 0.00 | 0.00 | 0.00 | 82 | 1021.8 |
| 20260508191205 | 51 | 239 | 0.0 | 2.0 | 0.00 | 0.00 | 0.00 | 82 | 1021.7 |
| 20260508190704 | 51 | 330 | 0.0 | 1.0 | 0.00 | 0.00 | 0.00 | 83 | 1021.7 |
| 20260508190205 | 51 | 330 | 0.0 | 2.0 | 0.00 | 0.00 | 0.00 | 83 | 1021.7 |
| 20260508185704 | 51 | 329 | 0.0 | 5.0 | 0.00 | 0.00 | 0.00 | 84 | 1021.7 |
| 20260508185204 | 51 | 238 | 0.0 | 5.0 | 0.00 | 0.00 | 0.00 | 86 | 1021.6 |
| 20260508184204 | 50 | 302 | 0.0 | 2.0 | 0.00 | 0.00 | 0.00 | 87 | 1021.5 |
| 20260508183704 | 50 | 302 | 0.0 | 2.0 | 0.00 | 0.00 | 0.00 | 88 | 1021.6 |
| 20260508183204 | 50 | 302 | 1.0 | 4.0 | 0.00 | 0.00 | 0.00 | 88 | 1021.5 |
| 20260508182704 | 50 | 77 | 0.0 | 4.0 | 0.00 | 0.00 | 0.00 | 88 | 1021.5 |
| 20260508182203 | 50 | 71 | 4.0 | 4.0 | 0.00 | 0.00 | 0.00 | 89 | 1021.5 |
| 20260508181203 | 50 | 34 | 0.0 | 2.0 | 0.00 | 0.00 | 0.00 | 90 | 1021.4 |
| 20260508180703 | 49 | 265 | 1.0 | 3.0 | 0.00 | 0.00 | 0.00 | 90 | 1021.5 |
| 20260508175704 | 49 | 100 | 2.0 | 4.0 | 0.00 | 0.00 | 0.00 | 91 | 1021.2 |
| 20260508175204 | 50 | 308 | 0.0 | 2.0 | 0.00 | 0.00 | 0.00 | 91 | 1021.2 |
| 20260508174703 | 50 | 91 | 0.0 | 2.0 | 0.00 | 0.00 | 0.00 | 91 | 1021.2 |
| 20260508174203 | 50 | 92 | 0.0 | 3.0 | 0.00 | 0.00 | 0.00 | 91 | 1021.2 |
| 20260508173703 | 50 | 91 | 0.0 | 4.0 | 0.00 | 0.00 | 0.00 | 90 | 1021.1 |
| 20260508173203 | 50 | 99 | 3.0 | 5.0 | 0.00 | 0.00 | 0.00 | 89 | 1021.0 |
| 20260508172703 | 50 | 94 | 2.0 | 5.0 | 0.00 | 0.00 | 0.00 | 88 | 1020.9 |
| 20260508172203 | 50 | 101 | 0.0 | 4.0 | 0.00 | 0.00 | 0.00 | 87 | 1020.8 |
| 20260508171703 | 51 | 67 | 0.0 | 3.0 | 0.00 | 0.00 | 0.00 | 87 | 1020.9 |
| 20260508170703 | 51 | 122 | 0.0 | 4.0 | 0.00 | 0.00 | 0.00 | 87 | 1020.9 |
| 20260508170203 | 51 | 97 | 2.0 | 5.0 | 0.00 | 0.00 | 0.00 | 87 | 1020.6 |
| 20260508165702 | 51 | 90 | 2.0 | 6.0 | 0.00 | 0.00 | 0.00 | 87 | 1020.4 |
| 20260508165202 | 51 | 89 | 3.0 | 6.0 | 0.00 | 0.00 | 0.00 | 87 | 1020.4 |
| 20260508164202 | 51 | 98 | 4.0 | 6.0 | 0.00 | 0.00 | 0.00 | 87 | 1020.3 |
| 20260508163702 | 51 | 111 | 0.0 | 5.0 | 0.00 | 0.00 | 0.00 | 86 | 1020.3 |
| 20260508163202 | 51 | 108 | 2.0 | 7.0 | 0.00 | 0.00 | 0.00 | 87 | 1020.1 |
| 20260508162702 | 51 | 86 | 4.0 | 7.0 | 0.00 | 0.00 | 0.00 | 86 | 1019.9 |
| 20260508162201 | 52 | 96 | 3.0 | 3.0 | 0.00 | 0.00 | 0.00 | 84 | 1020.0 |
| 20260508161701 | 52 | 90 | 2.0 | 2.0 | 0.00 | 0.00 | 0.00 | 84 | 1019.9 |
| 20260508161201 | 51 | 278 | 0.0 | 3.0 | 0.00 | 0.00 | 0.00 | 85 | 1019.9 |
| 20260508160702 | 51 | 278 | 2.0 | 3.0 | 0.00 | 0.00 | 0.00 | 84 | 1019.8 |
| 20260508160201 | 51 | 274 | 0.0 | 3.0 | 0.00 | 0.00 | 0.00 | 85 | 1019.9 |
| 20260508154701 | 51 | 282 | 3.0 | 6.0 | 0.00 | 0.00 | 0.00 | 85 | 1019.6 |
| 20260508154201 | 51 | 303 | 3.0 | 6.0 | 0.00 | 0.00 | 0.00 | 86 | 1019.7 |
| 20260508153201 | 51 | 245 | 4.0 | 7.0 | 0.00 | 0.00 | 0.00 | 86 | 1019.7 |
| 20260508152701 | 50 | 256 | 3.0 | 7.0 | 0.00 | 0.00 | 0.00 | 87 | 1019.7 |
| 20260508152200 | 50 | 300 | 4.0 | 7.0 | 0.00 | 0.00 | 0.00 | 88 | 1019.7 |
| 20260508151200 | 50 | 249 | 2.0 | 6.0 | 0.00 | 0.00 | 0.00 | 88 | 1019.6 |
| 20260508150701 | 50 | 239 | 2.0 | 6.0 | 0.00 | 0.00 | 0.00 | 88 | 1019.5 |
| 20260508150200 | 50 | 267 | 1.0 | 7.0 | 0.00 | 0.00 | 0.00 | 88 | 1019.5 |
| 20260508145700 | 50 | 250 | 2.0 | 9.0 | 0.00 | 0.00 | 0.00 | 88 | 1019.5 |
| 20260508145200 | 50 | 279 | 2.0 | 9.0 | 0.00 | 0.00 | 0.00 | 88 | 1019.6 |
| 20260508144700 | 49 | 293 | 1.0 | 8.0 | 0.00 | 0.00 | 0.00 | 88 | 1019.4 |
| 20260508144200 | 49 | 258 | 2.0 | 11.0 | 0.00 | 0.00 | 0.00 | 88 | 1019.4 |
| 20260508143700 | 49 | 239 | 3.0 | 11.0 | 0.00 | 0.00 | 0.00 | 88 | 1019.3 |
| 20260508143200 | 49 | 285 | 0.0 | 10.0 | 0.00 | 0.00 | 0.00 | 89 | 1019.2 |
| 20260508142659 | 49 | 245 | 4.0 | 10.0 | 0.00 | 0.00 | 0.00 | 89 | 1019.2 |
| 20260508142200 | 49 | 289 | 7.0 | 10.0 | 0.00 | 0.00 | 0.00 | 89 | 1019.1 |
| 20260508141659 | 49 | 271 | 2.0 | 8.0 | 0.00 | 0.00 | 0.00 | 89 | 1018.9 |
| 20260508140659 | 49 | 252 | 4.0 | 8.0 | 0.00 | 0.00 | 0.00 | 89 | 1018.8 |
| 20260508140200 | 49 | 276 | 1.0 | 8.0 | 0.00 | 0.00 | 0.00 | 89 | 1018.8 |
| 20260508135700 | 49 | 319 | 5.0 | 8.0 | 0.00 | 0.00 | 0.00 | 89 | 1018.7 |
| 20260508135159 | 49 | 256 | 1.0 | 8.0 | 0.00 | 0.00 | 0.00 | 89 | 1018.7 |
| 20260508134159 | 49 | 285 | 3.0 | 9.0 | 0.00 | 0.00 | 0.00 | 89 | 1018.5 |
| 20260508133659 | 49 | 278 | 5.0 | 8.0 | 0.00 | 0.00 | 0.00 | 90 | 1018.4 |
| 20260508133159 | 49 | 319 | 3.0 | 8.0 | 0.00 | 0.00 | 0.00 | 90 | 1018.4 |
| 20260508132159 | 49 | 264 | 4.0 | 8.0 | 0.00 | 0.00 | 0.00 | 90 | 1018.4 |
| 20260508131659 | 49 | 287 | 3.0 | 8.0 | 0.00 | 0.00 | 0.00 | 90 | 1018.3 |
| 20260508131158 | 49 | 264 | 6.0 | 6.0 | 0.00 | 0.00 | 0.00 | 90 | 1018.2 |
| 20260508130658 | 49 | 283 | 2.0 | 7.0 | 0.00 | 0.00 | 0.00 | 90 | 1018.2 |
| 20260508130158 | 49 | 242 | 3.0 | 7.0 | 0.00 | 0.00 | 0.00 | 90 | 1018.2 |
| 20260508125658 | 49 | 259 | 4.0 | 7.0 | 0.00 | 0.00 | 0.00 | 90 | 1018.2 |
| 20260508125158 | 49 | 262 | 2.0 | 8.0 | 0.00 | 0.00 | 0.00 | 90 | 1018.2 |
| 20260508124658 | 49 | 268 | 2.0 | 8.0 | 0.00 | 0.00 | 0.00 | 90 | 1018.1 |
| 20260508124158 | 49 | 286 | 4.0 | 8.0 | 0.00 | 0.00 | 0.00 | 90 | 1018.1 |
| 20260508123658 | 49 | 310 | 3.0 | 7.0 | 0.00 | 0.00 | 0.00 | 90 | 1018.2 |
| 20260508123157 | 49 | 293 | 3.0 | 7.0 | 0.00 | 0.00 | 0.00 | 90 | 1018.1 |
| 20260508122658 | 49 | 252 | 2.0 | 6.0 | 0.00 | 0.00 | 0.00 | 90 | 1018.0 |
| 20260508122157 | 49 | 275 | 3.0 | 9.0 | 0.00 | 0.00 | 0.00 | 90 | 1018.1 |
| 20260508121658 | 49 | 257 | 3.0 | 10.0 | 0.00 | 0.00 | 0.00 | 91 | 1018.1 |
| 20260508120657 | 48 | 221 | 3.0 | 7.0 | 0.00 | 0.00 | 0.00 | 91 | 1017.9 |
| 20260508120158 | 48 | 285 | 1.0 | 7.0 | 0.00 | 0.00 | 0.00 | 91 | 1017.9 |
| 20260508115657 | 48 | 236 | 1.0 | 7.0 | 0.00 | 0.00 | 0.00 | 91 | 1017.9 |
| 20260508115157 | 48 | 279 | 0.0 | 6.0 | 0.00 | 0.00 | 0.00 | 91 | 1017.8 |
| 20260508114657 | 48 | 284 | 2.0 | 6.0 | 0.00 | 0.00 | 0.00 | 91 | 1017.9 |
| 20260508114157 | 48 | 255 | 2.0 | 6.0 | 0.00 | 0.00 | 0.00 | 91 | 1017.9 |
| 20260508113657 | 48 | 289 | 4.0 | 5.0 | 0.00 | 0.00 | 0.00 | 91 | 1017.8 |
| 20260508113156 | 48 | 263 | 1.0 | 5.0 | 0.00 | 0.00 | 0.00 | 92 | 1017.8 |
| 20260508112156 | 48 | 256 | 2.0 | 4.0 | 0.00 | 0.00 | 0.00 | 92 | 1017.7 |
| 20260508111657 | 48 | 274 | 2.0 | 4.0 | 0.00 | 0.00 | 0.00 | 92 | 1017.7 |
| 20260508111156 | 48 | 279 | 1.0 | 3.0 | 0.00 | 0.00 | 0.00 | 93 | 1017.5 |
| 20260508110156 | 47 | 283 | 0.0 | 2.0 | 0.00 | 0.00 | 0.00 | 93 | 1017.5 |
| 20260508105656 | 47 | 275 | 0.0 | 2.0 | 0.00 | 0.00 | 0.00 | 93 | 1017.5 |
| 20260508105156 | 47 | 100 | 0.0 | 1.0 | 0.00 | 0.00 | 0.00 | 93 | 1017.4 |
| 20260508104656 | 48 | 100 | 0.0 | 2.0 | 0.00 | 0.00 | 0.00 | 93 | 1017.4 |
| 20260508104156 | 48 | 100 | 1.0 | 2.0 | 0.00 | 0.00 | 0.00 | 93 | 1017.3 |
| 20260508103656 | 48 | 100 | 0.0 | 0.0 | 0.00 | 0.00 | 0.00 | 93 | 1017.5 |
| 20260508103156 | 48 | 100 | 0.0 | 0.0 | 0.00 | 0.00 | 0.00 | 93 | 1017.4 |
| 20260508101655 | 48 | 100 | 0.0 | 0.0 | 0.00 | 0.00 | 0.00 | 92 | 1017.3 |
| 20260508101156 | 48 | 100 | 0.0 | 0.0 | 0.00 | 0.00 | 0.00 | 92 | 1017.3 |
| 20260508100656 | 48 | 100 | 0.0 | 0.0 | 0.00 | 0.00 | 0.00 | 92 | 1017.3 |
| 20260508100155 | 48 | 100 | 0.0 | 0.0 | 0.00 | 0.00 | 0.00 | 91 | 1017.3 |
| 20260508095155 | 48 | 100 | 0.0 | 0.0 | 0.00 | 0.00 | 0.00 | 91 | 1017.2 |
| 20260508094655 | 48 | 100 | 0.0 | 0.0 | 0.00 | 0.00 | 0.00 | 91 | 1017.2 |
| 20260508093655 | 48 | 100 | 0.0 | 0.0 | 0.00 | 0.00 | 0.00 | 90 | 1017.1 |
| 20260508093154 | 48 | 100 | 0.0 | 0.0 | 0.00 | 0.00 | 0.00 | 90 | 1017.1 |
| 20260508092655 | 48 | 100 | 0.0 | 0.0 | 0.00 | 0.00 | 0.00 | 90 | 1017.2 |
| 20260508092154 | 48 | 100 | 0.0 | 1.0 | 0.00 | 0.00 | 0.00 | 90 | 1017.2 |
| 20260508091654 | 48 | 100 | 0.0 | 1.0 | 0.00 | 0.00 | 0.00 | 90 | 1017.2 |
| 20260508091155 | 48 | 100 | 0.0 | 1.0 | 0.00 | 0.00 | 0.00 | 89 | 1017.3 |
| 20260508090655 | 48 | 100 | 0.0 | 0.0 | 0.00 | 0.00 | 0.00 | 89 | 1017.2 |
| 20260508090154 | 48 | 100 | 0.0 | 0.0 | 0.00 | 0.00 | 0.00 | 89 | 1017.2 |
| 20260508085654 | 48 | 100 | 0.0 | 1.0 | 0.00 | 0.00 | 0.00 | 89 | 1017.2 |
| 20260508085154 | 48 | 100 | 0.0 | 1.0 | 0.00 | 0.00 | 0.00 | 89 | 1017.2 |
| 20260508084654 | 48 | 100 | 0.0 | 0.0 | 0.00 | 0.00 | 0.00 | 88 | 1017.1 |
| 20260508084154 | 49 | 100 | 0.0 | 0.0 | 0.00 | 0.00 | 0.00 | 88 | 1017.1 |
| 20260508083653 | 49 | 100 | 0.0 | 0.0 | 0.00 | 0.00 | 0.00 | 88 | 1017.2 |
| 20260508083153 | 49 | 100 | 0.0 | 0.0 | 0.00 | 0.00 | 0.00 | 88 | 1017.2 |
| 20260508082153 | 49 | 100 | 0.0 | 0.0 | 0.00 | 0.00 | 0.00 | 88 | 1017.3 |
| 20260508081153 | 49 | 100 | 0.0 | 0.0 | 0.00 | 0.00 | 0.00 | 88 | 1017.3 |
| 20260508080653 | 49 | 100 | 0.0 | 2.0 | 0.00 | 0.00 | 0.00 | 88 | 1017.3 |
| 20260508080153 | 49 | 100 | 0.0 | 3.0 | 0.00 | 0.00 | 0.00 | 87 | 1017.3 |
| 20260508075653 | 49 | 100 | 0.0 | 3.0 | 0.00 | 0.00 | 0.00 | 87 | 1017.2 |
| 20260508075153 | 49 | 19 | 0.0 | 0.0 | 0.00 | 0.00 | 0.00 | 87 | 1017.2 |
| 20260508074653 | 49 | 7 | 0.0 | 1.0 | 0.00 | 0.00 | 0.00 | 86 | 1017.3 |
| 20260508074152 | 50 | 262 | 0.0 | 2.0 | 0.00 | 0.00 | 0.00 | 86 | 1017.4 |
| 20260508073653 | 50 | 262 | 0.0 | 3.0 | 0.00 | 0.00 | 0.00 | 86 | 1017.4 |
| 20260508073152 | 50 | 265 | 0.0 | 4.0 | 0.00 | 0.00 | 0.00 | 86 | 1017.4 |
| 20260508072652 | 50 | 284 | 2.0 | 4.0 | 0.00 | 0.00 | 0.00 | 86 | 1017.4 |
| 20260508072152 | 50 | 255 | 3.0 | 4.0 | 0.00 | 0.00 | 0.00 | 86 | 1017.4 |
| 20260508071652 | 49 | 264 | 3.0 | 4.0 | 0.00 | 0.00 | 0.00 | 86 | 1017.5 |
| 20260508071152 | 49 | 257 | 1.0 | 5.0 | 0.00 | 0.00 | 0.00 | 86 | 1017.5 |
| 20260508070152 | 49 | 263 | 2.0 | 5.0 | 0.00 | 0.00 | 0.00 | 87 | 1017.5 |
| 20260508065652 | 49 | 266 | 3.0 | 4.0 | 0.00 | 0.00 | 0.00 | 87 | 1017.6 |
| 20260508065152 | 49 | 250 | 2.0 | 4.0 | 0.00 | 0.00 | 0.00 | 87 | 1017.6 |
| 20260508064652 | 49 | 287 | 3.0 | 5.0 | 0.00 | 0.00 | 0.00 | 87 | 1017.5 |
| 20260508064151 | 49 | 285 | 2.0 | 5.0 | 0.00 | 0.00 | 0.00 | 88 | 1017.5 |
| 20260508063652 | 49 | 246 | 3.0 | 5.0 | 0.00 | 0.00 | 0.00 | 88 | 1017.5 |
| 20260508063152 | 49 | 260 | 4.0 | 6.0 | 0.00 | 0.00 | 0.00 | 88 | 1017.5 |
| 20260508062151 | 49 | 283 | 2.0 | 6.0 | 0.00 | 0.00 | 0.00 | 88 | 1017.6 |
| 20260508061651 | 49 | 266 | 3.0 | 6.0 | 0.00 | 0.00 | 0.00 | 88 | 1017.7 |
| 20260508061152 | 49 | 277 | 4.0 | 6.0 | 0.00 | 0.00 | 0.00 | 88 | 1017.7 |
| 20260508060151 | 49 | 268 | 2.0 | 7.0 | 0.00 | 0.00 | 0.00 | 88 | 1017.8 |
| 20260508055651 | 49 | 310 | 3.0 | 7.0 | 0.00 | 0.00 | 0.00 | 88 | 1017.7 |
| 20260508055151 | 49 | 287 | 4.0 | 7.0 | 0.00 | 0.00 | 0.00 | 88 | 1017.8 |
| 20260508054651 | 49 | 283 | 5.0 | 6.0 | 0.00 | 0.00 | 0.00 | 88 | 1017.8 |
| 20260508054151 | 49 | 266 | 2.0 | 8.0 | 0.00 | 0.00 | 0.00 | 87 | 1017.8 |
| 20260508053650 | 49 | 267 | 2.0 | 8.0 | 0.00 | 0.00 | 0.00 | 87 | 1017.8 |
| 20260508053151 | 49 | 283 | 4.0 | 7.0 | 0.00 | 0.00 | 0.00 | 87 | 1017.9 |
| 20260508052650 | 49 | 264 | 4.0 | 5.0 | 0.00 | 0.00 | 0.00 | 87 | 1017.9 |
| 20260508052150 | 49 | 259 | 3.0 | 5.0 | 0.00 | 0.00 | 0.00 | 87 | 1017.9 |
| 20260508051151 | 49 | 269 | 3.0 | 4.0 | 0.00 | 0.00 | 0.00 | 87 | 1017.8 |
| 20260508050650 | 50 | 259 | 2.0 | 4.0 | 0.00 | 0.00 | 0.00 | 87 | 1017.7 |
| 20260508050150 | 50 | 252 | 3.0 | 5.0 | 0.00 | 0.00 | 0.00 | 87 | 1017.7 |
| 20260508045650 | 50 | 262 | 3.0 | 5.0 | 0.00 | 0.00 | 0.00 | 87 | 1017.7 |
| 20260508045150 | 50 | 262 | 3.0 | 6.0 | 0.00 | 0.00 | 0.00 | 86 | 1017.7 |
| 20260508044650 | 50 | 261 | 4.0 | 6.0 | 0.00 | 0.00 | 0.00 | 86 | 1017.7 |
| 20260508044150 | 50 | 261 | 3.0 | 5.0 | 0.00 | 0.00 | 0.00 | 86 | 1017.7 |
| 20260508043150 | 50 | 251 | 2.0 | 5.0 | 0.00 | 0.00 | 0.00 | 86 | 1017.8 |
| 20260508042649 | 50 | 284 | 4.0 | 5.0 | 0.00 | 0.00 | 0.00 | 86 | 1017.8 |
| 20260508042149 | 50 | 273 | 3.0 | 6.0 | 0.00 | 0.00 | 0.00 | 86 | 1017.9 |
| 20260508041649 | 50 | 268 | 2.0 | 6.0 | 0.00 | 0.00 | 0.00 | 86 | 1017.9 |
| 20260508041149 | 50 | 257 | 2.0 | 6.0 | 0.00 | 0.00 | 0.00 | 86 | 1017.9 |
| 20260508040649 | 50 | 262 | 3.0 | 7.0 | 0.00 | 0.00 | 0.00 | 86 | 1018.0 |
| 20260508040149 | 50 | 294 | 3.0 | 7.0 | 0.00 | 0.00 | 0.00 | 86 | 1017.9 |
| 20260508035649 | 51 | 268 | 3.0 | 4.0 | 0.00 | 0.00 | 0.00 | 86 | 1018.0 |
| 20260508035149 | 51 | 285 | 3.0 | 5.0 | 0.00 | 0.00 | 0.00 | 86 | 1018.0 |
| 20260508034648 | 51 | 265 | 3.0 | 6.0 | 0.00 | 0.00 | 0.00 | 85 | 1017.9 |
| 20260508034148 | 51 | 253 | 3.0 | 6.0 | 0.00 | 0.00 | 0.00 | 85 | 1017.9 |
| 20260508033149 | 51 | 259 | 2.0 | 5.0 | 0.00 | 0.00 | 0.00 | 85 | 1017.8 |
| 20260508032648 | 51 | 252 | 2.0 | 7.0 | 0.00 | 0.00 | 0.00 | 84 | 1017.8 |
| 20260508032148 | 52 | 281 | 4.0 | 7.0 | 0.00 | 0.00 | 0.00 | 84 | 1017.8 |
| 20260508031648 | 52 | 262 | 4.0 | 6.0 | 0.00 | 0.00 | 0.00 | 84 | 1017.9 |
| 20260508031148 | 52 | 263 | 3.0 | 6.0 | 0.00 | 0.00 | 0.00 | 84 | 1017.8 |
| 20260508030648 | 52 | 257 | 1.0 | 6.0 | 0.00 | 0.00 | 0.00 | 84 | 1017.8 |
| 20260508030148 | 52 | 288 | 4.0 | 8.0 | 0.00 | 0.00 | 0.00 | 83 | 1017.9 |
| 20260508025648 | 52 | 254 | 3.0 | 8.0 | 0.00 | 0.00 | 0.00 | 83 | 1017.9 |
| 20260508025147 | 53 | 275 | 3.0 | 9.0 | 0.00 | 0.00 | 0.00 | 83 | 1017.9 |
| 20260508024647 | 53 | 251 | 2.0 | 9.0 | 0.00 | 0.00 | 0.00 | 82 | 1018.0 |
| 20260508024147 | 53 | 267 | 4.0 | 9.0 | 0.00 | 0.00 | 0.00 | 82 | 1018.0 |
| 20260508023647 | 53 | 288 | 7.0 | 9.0 | 0.00 | 0.00 | 0.00 | 81 | 1018.0 |
| 20260508023147 | 54 | 241 | 4.0 | 9.0 | 0.00 | 0.00 | 0.00 | 81 | 1018.1 |
| 20260508022647 | 54 | 278 | 3.0 | 8.0 | 0.00 | 0.00 | 0.00 | 81 | 1018.1 |
| 20260508022147 | 54 | 250 | 4.0 | 9.0 | 0.00 | 0.00 | 0.00 | 81 | 1018.2 |
| 20260508021647 | 54 | 293 | 4.0 | 9.0 | 0.00 | 0.00 | 0.00 | 81 | 1018.2 |
| 20260508021147 | 54 | 281 | 4.0 | 7.0 | 0.00 | 0.00 | 0.00 | 81 | 1018.2 |
| 20260508020647 | 54 | 298 | 5.0 | 7.0 | 0.00 | 0.00 | 0.00 | 81 | 1018.2 |
| 20260508020147 | 55 | 317 | 4.0 | 7.0 | 0.00 | 0.00 | 0.00 | 80 | 1018.2 |
| 20260508015647 | 55 | 292 | 4.0 | 9.0 | 0.00 | 0.00 | 0.00 | 78 | 1018.2 |
| 20260508014647 | 56 | 287 | 5.0 | 7.0 | 0.00 | 0.00 | 0.00 | 75 | 1018.3 |
| 20260508014146 | 57 | 268 | 2.0 | 7.0 | 0.00 | 0.00 | 0.00 | 75 | 1018.3 |
| 20260508013646 | 57 | 339 | 2.0 | 7.0 | 0.00 | 0.00 | 0.00 | 74 | 1018.4 |
| 20260508013146 | 58 | 274 | 2.0 | 6.0 | 0.00 | 0.00 | 0.00 | 73 | 1018.5 |
| 20260508012646 | 58 | 301 | 2.0 | 6.0 | 0.00 | 0.00 | 0.00 | 73 | 1018.4 |
| 20260508012146 | 59 | 275 | 2.0 | 5.0 | 0.00 | 0.00 | 0.00 | 72 | 1018.4 |
| 20260508011646 | 59 | 13 | 3.0 | 4.0 | 0.00 | 0.00 | 0.00 | 70 | 1018.5 |
| 20260508011146 | 59 | 9 | 2.0 | 3.0 | 0.00 | 0.00 | 0.00 | 70 | 1018.6 |
| 20260508010646 | 59 | 15 | 3.0 | 3.0 | 0.00 | 0.00 | 0.00 | 70 | 1018.6 |
| 20260508010145 | 59 | 18 | 0.0 | 3.0 | 0.00 | 0.00 | 0.00 | 71 | 1018.6 |
| 20260508005646 | 59 | 46 | 2.0 | 3.0 | 0.00 | 0.00 | 0.00 | 71 | 1018.6 |
| 20260508005145 | 59 | 8 | 0.0 | 3.0 | 0.00 | 0.00 | 0.00 | 71 | 1018.6 |
| 20260508004645 | 59 | 357 | 2.0 | 3.0 | 0.00 | 0.00 | 0.00 | 72 | 1018.6 |
| 20260508004145 | 59 | 63 | 1.0 | 3.0 | 0.00 | 0.00 | 0.00 | 70 | 1018.6 |
| 20260508003646 | 59 | 58 | 2.0 | 3.0 | 0.00 | 0.00 | 0.00 | 71 | 1018.7 |
| 20260508003145 | 59 | 91 | 0.0 | 2.0 | 0.00 | 0.00 | 0.00 | 72 | 1018.7 |
| 20260508002645 | 59 | 77 | 0.0 | 3.0 | 0.00 | 0.00 | 0.00 | 71 | 1018.7 |
| 20260508002145 | 59 | 77 | 1.0 | 3.0 | 0.00 | 0.00 | 0.00 | 72 | 1018.7 |
| 20260508001645 | 59 | 88 | 3.0 | 3.0 | 0.00 | 0.00 | 0.00 | 71 | 1018.8 |
| 20260508001145 | 59 | 73 | 3.0 | 3.0 | 0.00 | 0.00 | 0.00 | 71 | 1018.8 |
| 20260508000645 | 59 | 82 | 2.0 | 4.0 | 0.00 | 0.00 | 0.00 | 70 | 1018.8 |
| 20260507235645 | 58 | 96 | 0.0 | 3.0 | 0.00 | 0.00 | 0.00 | 73 | 1018.8 |
| 20260507235144 | 58 | 35 | 1.0 | 3.0 | 0.00 | 0.00 | 0.00 | 72 | 1018.8 |
| 20260507234644 | 58 | 29 | 2.0 | 3.0 | 0.00 | 0.00 | 0.00 | 72 | 1018.8 |
| 20260507234144 | 58 | 29 | 2.0 | 3.0 | 0.00 | 0.00 | 0.00 | 72 | 1018.8 |
| 20260507233644 | 58 | 85 | 2.0 | 3.0 | 0.00 | 0.00 | 0.00 | 72 | 1018.8 |